This is the latest recevied weather packets stored in our database for station/object OK1LPD-6. If no packets are shown the sender has not sent any weather packets the latest 10 day(s).
| Time | Temp. | Humidity | Pressure | Rain* | Wind** | Luminosity | Snow |
|---|---|---|---|---|---|---|---|
| 1787659556 | 22.78° C | 45% | 1014.2 hPa | 0 mm | - | - | - |
| 1787658957 | 22.78° C | 44% | 1014.1 hPa | 0 mm | - | - | - |
| 1787658374 | 22.78° C | 43% | 1014.1 hPa | 0 mm | - | - | - |
| 1787657757 | 22.78° C | 42% | 1014.2 hPa | 0 mm | - | - | - |
| 1787657157 | 23.33° C | 43% | 1014.1 hPa | 0 mm | - | - | - |
| 1787656578 | 22.78° C | 43% | 1014.1 hPa | 0 mm | - | - | - |
| 1787655956 | 22.22° C | 45% | 1014.2 hPa | 0 mm | - | - | - |
| 1787655357 | 22.22° C | 45% | 1014 hPa | 0 mm | - | - | - |
| 1787654775 | 22.22° C | 50% | 1014.1 hPa | 0 mm | - | - | - |
| 1787654157 | 22.22° C | 50% | 1014.2 hPa | 0 mm | - | - | - |
| 1787653558 | 22.22° C | 50% | 1014.4 hPa | 0 mm | - | - | - |
| 1787652977 | 21.67° C | 50% | 1014.4 hPa | 0 mm | - | - | - |
| 1787652357 | 21.11° C | 51% | 1014.5 hPa | 0 mm | - | - | - |
| 1787651758 | 20.56° C | 51% | 1014.6 hPa | 0 mm | - | - | - |
| 1787651175 | 20.56° C | 51% | 1014.7 hPa | 0 mm | - | - | - |
| 1787650557 | 20.56° C | 51% | 1014.8 hPa | 0 mm | - | - | - |
| 1787649958 | 20.56° C | 51% | 1014.6 hPa | 0 mm | - | - | - |
| 1787649378 | 20° C | 51% | 1014.8 hPa | 0 mm | - | - | - |
| 1787648757 | 19.44° C | 51% | 1014.8 hPa | 0 mm | - | - | - |
| 1787648158 | 19.44° C | 52% | 1014.8 hPa | 0 mm | - | - | - |
| 1787647576 | 19.44° C | 53% | 1014.8 hPa | 0 mm | - | - | - |
| 1787646959 | 18.89° C | 54% | 1014.9 hPa | 0 mm | - | - | - |
| 1787646358 | 18.89° C | 53% | 1014.9 hPa | 0 mm | - | - | - |
| 1787645779 | 18.89° C | 54% | 1015 hPa | 0 mm | - | - | - |
| 1787645158 | 18.33° C | 56% | 1015.1 hPa | 0 mm | - | - | - |
* Rain latest hour (hover to see other rain measurements)
** Current wind speed in m/s (hover to see current wind gust speed)